This is the latest recevied weather packets stored in our database for station/object IA5KRO-13. If no packets are shown the sender has not sent any weather packets the latest 1 day(s).
| Time | Temp. | Humidity | Pressure | Rain* | Wind** | Luminosity | Snow |
|---|---|---|---|---|---|---|---|
| 1778072710 | 22.22° C | 64% | 1018 hPa | 0 mm | - | - | - |
| 1778072435 | 22.78° C | 62% | 1018 hPa | 0 mm | - | - | - |
| 1778072109 | 22.78° C | 63% | 1018 hPa | 0 mm | - | - | - |
| 1778071214 | 22.22° C | 67% | 1018 hPa | 0 mm | - | - | - |
| 1778070910 | 22.22° C | 66% | 1018.3 hPa | 0 mm | - | - | - |
| 1778070625 | 22.78° C | 64% | 1018.3 hPa | 0 mm | - | - | - |
| 1778069713 | 22.22° C | 66% | 1018 hPa | 0 mm | - | - | - |
| 1778069110 | 22.22° C | 67% | 1018.3 hPa | 0 mm | - | - | - |
| 1778068834 | 21.11° C | 69% | 1018.3 hPa | 0 mm | - | - | - |
| 1778068213 | 21.11° C | 70% | 1018 hPa | 0 mm | - | - | - |
| 1778067310 | 22.22° C | 66% | 1018 hPa | 0 mm | - | - | - |
| 1778067024 | 22.22° C | 65% | 1018 hPa | 0 mm | - | - | - |
| 1778065814 | 21.11° C | 70% | 1018 hPa | 0 mm | - | - | - |
| 1778064910 | 21.11° C | 69% | 1018 hPa | 0 mm | - | - | - |
| 1778063709 | 21.11° C | 69% | 1018.3 hPa | 0 mm | - | - | - |
| 1778062513 | 20° C | 73% | 1019 hPa | 0 mm | - | - | - |
| 1778062213 | 20° C | 70% | 1018.3 hPa | 0 mm | - | - | - |
| 1778061636 | 20° C | 75% | 1018.3 hPa | 0 mm | - | - | - |
| 1778060414 | 18.89° C | 77% | 1018.3 hPa | 0 mm | - | - | - |
| 1778060110 | 18.89° C | 78% | 1018.3 hPa | 0 mm | - | - | - |
| 1778059823 | 18.89° C | 79% | 1018.3 hPa | 0 mm | - | - | - |
| 1778059213 | 18.89° C | 85% | 1018 hPa | 0 mm | - | - | - |
| 1778057413 | 18.89° C | 84% | 1017.6 hPa | 0 mm | - | - | - |
| 1778056509 | 17.78° C | 84% | 1017.6 hPa | 0 mm | - | - | - |
| 1778055910 | 18.89° C | 81% | 1017.3 hPa | 0 mm | - | - | - |
* Rain latest hour (hover to see other rain measurements)
** Current wind speed in m/s (hover to see current wind gust speed)